Regional Weather Roundup
Issued by NWS

Home | Current Version | Previous Version | Graphics & Text | Print | Product List | Glossary On
Versions: 1 2 3 4 5 6 7 8 9 10 11 12 13 14 15 16 17 18 19 20 21 22 23 24 25 26 27 28 29 30 31 32 33 34 35 36 37 38 39 40 41 42 43 44 45 46 47 48 49 50
000
ASUS43 KLSX 181059
RWRMO

WEATHER SUMMARY FOR MISSOURI
NATIONAL WEATHER SERVICE SPRINGFIELD MO
600 AM CDT FRI APR 18 2014

NOTE: "FAIR" INDICATES FEW OR NO CLOUDS BELOW 12,000 FEET WITH NO
       SIGNIFICANT WEATHER AND/OR OBSTRUCTIONS TO VISIBILITY.
       CURRENT SKY AND/OR WEATHER CONDITIONS ARE NOT AVAILABLE FOR
       CHILLICOTHE AND FARMINGTON.

MOZ001>031-035>038-043-044-053-054-181200-
...NORTHERN AND WESTERN MISSOURI...

CITY           SKY/WX    TMP DP  RH WIND       PRES   REMARKS
KANSAS CTY INT PTCLDY    34  31  88 S6        30.29R FOG     WCI  29
KANSAS C DTWN  CLEAR     39  34  82 CALM      30.29R
LEE`S SUMMIT   CLEAR     38  33  82 CALM      30.29S
ST JOSEPH      CLEAR     31  28  89 CALM      30.30R FOG
KIRKSVILLE     CLEAR     33  31  92 NE6       30.31S WCI  28

$$
MOZ066>068-077>081-088>096-101>105-181200-
...SOUTHWEST MISSOURI...

CITY           SKY/WX    TMP DP  RH WIND       PRES   REMARKS
SPRINGFIELD    MOCLDY    43  38  82 CALM      30.24F
JOPLIN         PTCLDY    40  38  93 NE3       30.26S FOG

$$
MOZ032>034-039>042-045>050-055>058-069>072-181200-
...CENTRAL MISSOURI...

CITY           SKY/WX    TMP DP  RH WIND       PRES   REMARKS
COLUMBIA       CLEAR     39  37  92 N6        30.29R
JEFFERSON CITY CLEAR     42  38  85 CALM      30.30R
ROLLA          CLOUDY    43  39  86 N3        30.26R
SEDALIA        CLEAR     39  37  92 NE3       30.29F FOG
OSAGE BEACH    PTCLDY    39  36  87 CALM      30.29S

$$
MOZ051-052-059>065-181200-
...EAST CENTRAL MISSOURI...

CITY           SKY/WX    TMP DP  RH WIND       PRES   REMARKS
ST LOUIS INTL  PTCLDY    47  38  71 N3        30.30R
SPIRIT OF STL  CLEAR     40  37  89 CALM      30.29R
ST CHARLES     CLEAR     45  37  73 NE5       30.29R

$$
MOZ072>076-082>087-097>100-106>115-181200-
...SOUTH CENTRAL AND SOUTHEAST MISSOURI...

CITY           SKY/WX    TMP DP  RH WIND       PRES   REMARKS
CAPE GIRARDEAU MOCLDY    46  44  93 W3        30.25F
FARMINGTON     CLOUDY    46  41  81 NW3       30.29S
POPLAR BLUFF   MOCLDY    51  43  74 CALM      30.23F
WEST PLAINS    PTCLDY    47  39  74 NE3       30.25F

$$



USA.gov is the U.S. government's official web portal to all federal, state and local government web resources and services.